STARLINK-5762, 55590

Orbit data source: Space-Track

STARLINK-5762, 55590 is a payload satellite owned by SpaceX/Seattle (US) in LEO that was launched on Sun, 12 Feb 2023 UTC via an FALCON 9 launch vehicle from the Air Force Eastern Test Range (AFETR). Payload-class satellites include a variety of spacecraft equipped with specific instruments for various scientific and technological missions. These include communications satellites like Starlink; space stations such as the ISS; scientific satellites like the Hubble; Earth observation satellites from companies like Planet Labs, Umbra, and HawkEye 360; GPS; miniature CubeSats for education and research; and military/defense satellites.

Loading next visibility...
Identifier
55590, 2023-020X
Orbit
LEO
Country
Flag of USUS
Related business
Manufacturer
SpaceX/Seattle
Mission
Operational Commercial Communications
Bus & Motor
STARLINK, Unknown motor
Mass
305 kg wet, ~290 kg dry
Launch date (UTC)
2023-02-12 (4 years ago)
Launch vehicle
FALCON 9
Launch site
Air Force Eastern Test Range (AFETR)
Object type
Payload
Rocket body
Debris
Shape & HBR
Box + 1 Pan, 10.1 m
Radar Cross Section
13.562 m², Large (>1 m²)

Expand to show TLE details & history
Last TLE update: 7 hours ago

TLE from 7 hours ago
0 STARLINK-5762
1 55590U 23020X   26265.50287318  .00000271  00000-0  19361-4 0  9990
2 55590  43.0047 333.6389 0001121 288.0816  71.9913 15.27576203199015
Epoch: 2026-09-22T12:04Z
TLE epoch observation values (Epoch: 2026-09-22T12:04:08.242Z)
Latitude
-0.00007°
Longitude
151.23707°
Altitude
482.599 km
Speed
7.626 km/s
True Right ascension
22h 14m 33s
True Declination
0° 00' 00"
Sunlit
Object was in full shadow at epoch
Visualization orbit readout
Latitude
Unknown
Longitude
Unknown
Altitude
Unknown
Speed
Unknown
Apparent Right ascension
Unknown
Apparent Declination
Unknown
Sunlit
N/A
Visualization observer readout
Local Sidereal Time
11:59:14
Azimuth
Unknown
Elevation
Unknown
Doppler factor
Unknown
Orbital elements
Apogee altitude
485.774 km
Perigee altitude
484.235 km
Semi-major axis
6,863.142 km
Eccentricity
0.00011
Inclination
43.0047°
RAAN
333.6389°
Arg. of periapsis
288.0816°
True anomaly
72.00352°
Mean anomaly
71.9913°
Eccentric anomaly
71.99741°
Mean motion
3.81732 °/min
Orbital period
94.31 mins
BSTAR
0.000019361
Loading maneuver chart data...
Computing Atmospheric mass density...
Loading historical data...
Loading historical data...
Loading historical data...
Loading historical data...
Loading historical data...
Loading historical data...
Loading historical data...

Documentation

Showing up to 5 results
|